This is the latest recevied weather packets stored in our database for station/object KR8N. If no packets are shown the sender has not sent any weather packets the latest 10 day(s).
| Time | Temp. | Humidity | Pressure | Rain* | Wind** | Luminosity | Snow |
|---|---|---|---|---|---|---|---|
| 1777462480 | 13.89° C | 96% | 1015.9 hPa | 4.83 mm | - | 8 W/m² | - |
| 1777462177 | 13.89° C | 96% | 1016 hPa | 10.67 mm | - | 2 W/m² | - |
| 1777461873 | 13.89° C | 95% | 1016 hPa | 10.67 mm | - | 4 W/m² | - |
| 1777461570 | 13.89° C | 95% | 1016 hPa | 3.05 mm | - | 3 W/m² | - |
| 1777461266 | 13.89° C | 95% | 1016 hPa | 6.1 mm | - | 4 W/m² | - |
| 1777460961 | 13.89° C | 95% | 1015.7 hPa | 8.89 mm | - | 4 W/m² | - |
| 1777460657 | 13.89° C | 95% | 1015.5 hPa | 4.83 mm | - | 1 W/m² | - |
| 1777460352 | 13.89° C | 95% | 1015.6 hPa | 0 mm | - | 1 W/m² | - |
| 1777460049 | 13.89° C | 95% | 1015.4 hPa | 0 mm | - | 1 W/m² | - |
| 1777459746 | 13.89° C | 95% | 1015.5 hPa | 0 mm | - | 1 W/m² | - |
| 1777459443 | 13.89° C | 95% | 1015.2 hPa | 0 mm | - | 2 W/m² | - |
| 1777459140 | 13.33° C | 95% | 1014.9 hPa | 0 mm | - | 1 W/m² | - |
| 1777458837 | 13.33° C | 95% | 1014.3 hPa | 0 mm | - | 1 W/m² | - |
| 1777458534 | 13.33° C | 95% | 1014.4 hPa | 0 mm | - | 1 W/m² | - |
| 1777458231 | 13.33° C | 95% | 1014.5 hPa | 0 mm | - | 1 W/m² | - |
| 1777457926 | 13.33° C | 95% | 1014.2 hPa | 0 mm | - | 0 W/m² | - |
| 1777457623 | 13.33° C | 95% | 1014.4 hPa | 0 mm | - | 0 W/m² | - |
| 1777457322 | 13.33° C | 95% | 1014.4 hPa | 0 mm | - | 0 W/m² | - |
| 1777457018 | 13.33° C | 95% | 1014.5 hPa | 0 mm | - | 0 W/m² | - |
| 1777456715 | 13.33° C | 94% | 1014.6 hPa | 0 mm | - | 0 W/m² | - |
| 1777456413 | 13.33° C | 94% | 1014.7 hPa | 0 mm | - | 0 W/m² | - |
| 1777456111 | 13.33° C | 94% | 1015 hPa | 0 mm | - | 0 W/m² | - |
| 1777455806 | 13.89° C | 95% | 1014.7 hPa | 0 mm | - | 0 W/m² | - |
| 1777455503 | 13.89° C | 95% | 1014.7 hPa | 0 mm | - | 0 W/m² | - |
| 1777455200 | 13.89° C | 96% | 1015 hPa | 0 mm | - | 0 W/m² | - |
* Rain latest hour (hover to see other rain measurements)
** Current wind speed in m/s (hover to see current wind gust speed)